Wind_Speed
8 9 10 10 12 12 12 11 10 11 12 13 13 14 15 15 16 16 16 16 16 15 15 15 15 14 13 13 12 12 12 13 14 15 16 17 17 17 16 15 15 15 15
6 6 7 8 9 10 11 11 11 11 12 13 14 15 16 17 17 18 17 17 17 16 16 15 15 14 14 14 14 14 14 14 15 16 16 17 18 18 17 16 16 16 16
7 7 7 7 7 7 8 9 9 10 10 11 12 13 14 15 16 16 16 16 16 15 15 15 14 14 14 15 15 16 16 17 17 17 17 17 18 18 18 17 17 18 18
8 8 8 7 6 5 6 6 7 8 9 10 11 12 13 14 14 13 13 14 14 14 15 15 15 16 17 17 17 18 18 19 20 19 19 19 20 20 20 19 19 19 19
8 8 8 7 7 6 5 4 5 6 7 9 10 11 12 13 13 12 12 12 13 14 15 16 17 18 19 19 18 18 19 20 21 21 21 22 22 22 22 21 21 20 20
9 9 9 9 8 7 5 4 4 4 5 7 8 9 10 10 10 10 10 11 12 13 15 16 18 18 17 16 15 16 17 18 19 20 20 21 21 21 21 21 22 22 22
10 11 11 10 9 8 6 5 5 5 5 5 6 6 7 7 8 8 9 11 12 14 15 16 17 17 16 15 16 17 19 19 20 20 20 20 20 20 21 22 22 22 22
13 13 13 12 11 9 7 6 5 5 5 5 5 5 6 7 8 9 11 12 13 14 15 16 17 18 18 18 19 19 19 20 20 20 21 22 22 23 23 23 23 23 22
15 15 15 13 12 10 7 5 5 5 5 5 5 6 7 8 9 10 11 13 14 15 16 18 19 19 20 19 19 19 19 18 19 20 21 22 23 23 23 24 24 24 23
16 16 16 15 13 11 8 6 5 5 5 5 5 6 7 8 9 11 12 14 15 17 18 19 19 20 19 18 17 17 18 18 18 18 18 19 19 20 20 21 22 22 23
16 16 16 16 14 12 10 8 6 6 5 5 5 6 7 9 10 12 13 15 16 16 17 17 18 18 17 16 16 16 17 17 17 17 18 18 19 20 21 21 22 23 23
15 15 16 16 15 14 12 10 8 6 5 5 5 6 7 8 10 11 12 13 14 14 14 15 15 15 15 16 17 18 18 17 17 17 18 19 20 21 22 23 24 24 25
13 14 16 16 16 15 14 12 11 9 7 6 6 6 8 9 9 10 11 11 12 12 12 13 14 15 15 16 16 17 17 18 18 19 19 20 22 23 24 25 26 27 28
12 13 16 18 17 15 14 14 14 13 11 8 7 7 7 8 8 9 10 11 12 12 12 13 15 16 16 17 17 17 18 19 20 21 22 24 25 26 27 28 29 30 30
14 15 17 19 19 18 16 15 15 15 14 11 8 7 6 6 7 8 9 10 11 11 12 13 15 17 18 19 20 21 22 23 24 25 26 28 29 30 31 32 33 35 36
15 17 18 20 21 21 19 18 17 16 16 14 12 10 9 9 10 11 12 13 13 14 15 16 18 19 20 22 23 24 25 27 29 30 31 32 33 34 35 36 37 38 39
17 18 19 21 21 22 22 20 19 18 18 18 16 15 14 14 15 17 19 20 20 20 20 21 22 23 24 25 26 28 29 30 31 33 34 35 37 38 39 39 40 41 41
18 20 21 22 23 24 24 23 22 21 21 21 21 20 20 20 21 23 25 27 27 27 27 26 26 27 27 28 30 32 33 34 36 37 38 39 41 42 42 42 42 42 42
19 22 24 26 27 27 26 25 24 24 24 26 26 26 26 27 27 28 30 32 34 34 32 31 31 31 31 32 33 35 37 39 40 40 41 42 43 44 45 45 44 44 44
21 24 27 29 30 30 29 28 28 28 28 29 30 31 32 32 32 33 34 35 37 36 34 32 31 32 33 34 36 39 41 42 42 43 44 45 45 46 46 46 47 48 49
23 26 28 30 32 32 31 31 32 32 30 30 31 31 32 34 34 35 35 35 34 31 28 28 29 32 34 37 39 41 43 43 44 45 46 47 47 48 49 50 51 52 53
25 27 29 31 33 33 33 34 34 34 31 30 29 30 30 32 33 33 33 33 30 30 30 32 34 36 37 39 40 42 43 44 45 47 48 49 50 51 53 54 56 57 58
26 27 30 33 35 35 36 36 36 37 35 32 30 26 27 29 29 29 30 32 34 37 37 37 38 39 41 42 42 43 44 46 48 49 50 52 54 55 57 58 60 61 62
28 30 33 36 38 37 38 37 38 39 36 33 28 25 24 25 26 27 31 35 37 38 39 40 42 43 44 45 45 47 48 50 51 52 53 55 57 59 60 61 61 62 63
33 34 37 40 40 39 40 39 39 38 35 32 26 22 21 23 26 30 33 36 39 41 43 44 45 46 47 48 49 50 51 53 55 56 56 58 59 61 62 62 62 63 64
37 39 42 41 40 40 40 39 38 37 33 29 24 23 24 26 30 34 37 40 42 45 47 47 48 49 50 52 54 56 57 58 60 60 60 60 60 61 62 63 64 65 67
Wind_Direction
291 284 279 275 271 269 269 271 275 278 278 278 276 275 276 279 281 280 279 280 282 286 289 290 289 289 289 287 285 283 280 278 278 279 279 279 280 280 280 277 276 278 281
324 317 306 290 277 269 266 269 276 281 286 288 285 282 281 280 280 280 282 282 285 287 289 289 289 288 286 285 284 283 282 281 280 280 280 282 284 284 283 281 280 280 281
351 343 330 313 295 279 271 271 277 283 290 295 293 290 287 283 280 280 281 283 284 286 288 289 288 286 284 284 284 284 283 282 280 278 278 279 280 281 281 280 279 278 277
358 350 339 331 324 311 294 284 283 288 295 300 298 296 293 288 283 281 281 282 284 286 287 288 286 286 286 285 284 283 282 280 278 277 275 275 275 275 276 275 275 275 276
8 0 353 350 350 342 327 311 301 300 302 301 299 296 294 291 288 286 286 287 289 290 290 289 288 287 287 286 284 283 281 280 278 277 276 275 274 273 273 273 273 275 276
10 6 3 2 2 356 348 343 339 329 319 308 303 300 297 294 293 293 293 294 293 292 293 294 294 293 292 291 290 289 289 288 285 283 281 280 278 277 276 276 276 277 278
12 9 8 7 4 4 2 1 1 353 340 329 323 318 310 304 302 300 299 298 296 296 298 298 297 297 296 294 294 294 294 293 290 288 286 284 283 282 281 281 281 281 281
17 13 12 9 6 7 12 16 14 4 353 341 332 322 313 307 305 302 301 299 298 297 297 296 295 294 294 294 294 294 293 291 290 289 287 285 284 284 286 287 287 285 283
20 17 15 12 8 5 6 5 1 353 342 331 320 310 301 299 297 295 294 294 293 292 290 290 290 292 294 294 293 291 289 288 290 288 287 286 286 287 288 289 288 286 283
17 17 18 15 12 9 4 356 348 342 334 324 315 307 298 295 293 290 289 290 290 290 289 289 290 292 294 293 291 289 287 286 288 288 288 288 288 289 289 288 287 285 283
14 13 14 12 10 9 5 354 340 330 327 322 315 306 298 291 286 286 287 287 287 287 287 288 290 292 293 293 293 292 291 291 290 290 290 290 290 289 288 287 285 284 282
8 9 8 6 5 3 359 351 338 327 321 316 310 304 297 291 287 286 286 285 284 285 288 291 293 295 295 294 294 292 292 290 289 288 288 289 289 290 290 289 288 287 285
356 3 3 359 356 355 352 348 339 332 322 313 305 298 293 291 289 288 287 286 288 290 293 297 299 299 297 293 291 290 288 287 286 287 287 288 289 290 290 289 289 289 288
338 345 352 351 346 344 341 340 339 335 331 323 313 303 297 294 290 288 291 293 293 295 297 299 298 295 293 290 289 289 290 291 292 292 291 289 287 285 284 283 283 283 283
323 332 339 342 338 335 332 330 330 331 330 328 321 316 313 307 300 299 301 302 302 302 302 301 300 299 299 300 300 298 297 296 294 293 291 289 287 285 283 282 282 282 282
315 323 329 332 330 328 324 320 319 319 320 318 313 308 306 305 304 305 304 302 300 299 299 300 301 304 307 308 308 306 303 300 296 292 289 287 286 284 282 282 281 281 281
311 317 322 324 323 321 317 312 310 308 307 305 302 299 297 296 296 296 295 293 292 291 291 292 294 298 301 304 305 305 304 301 298 295 293 292 290 288 286 284 283 281 281
308 315 317 317 318 316 313 308 304 299 296 293 290 286 285 285 285 286 287 287 287 285 284 285 289 291 293 296 299 300 301 300 299 297 296 295 294 293 291 289 287 285 284
304 310 313 314 315 313 310 306 302 294 288 285 282 279 277 277 278 279 281 283 283 282 281 283 285 288 290 294 297 299 300 299 298 297 296 296 295 294 293 292 290 288 286
297 304 309 312 313 311 308 304 301 294 285 284 280 275 274 274 274 276 280 284 287 284 281 282 286 289 292 295 298 299 300 299 298 297 296 296 295 294 292 291 290 289 287
290 297 303 307 308 306 304 302 297 293 286 285 283 278 275 274 276 279 282 287 288 283 281 284 290 295 297 299 300 299 299 298 298 297 296 295 294 292 291 290 289 288 287
284 290 298 303 302 300 298 296 293 293 289 287 287 283 278 276 278 277 281 285 286 291 297 300 303 304 304 303 301 299 298 297 297 296 295 293 292 290 290 289 289 288 287
279 288 295 298 299 296 294 291 286 287 288 288 287 285 280 276 276 279 286 292 300 306 307 307 308 306 305 304 302 300 298 296 295 295 293 292 291 290 290 289 289 288 286
280 285 291 294 296 293 291 289 285 289 285 289 288 284 280 280 285 291 299 304 307 308 308 309 308 307 306 304 302 300 297 296 295 294 293 292 291 291 290 290 289 287 285
279 284 288 291 292 289 287 288 288 292 292 292 289 285 288 292 298 300 303 306 307 308 308 308 308 308 306 305 303 302 299 297 296 294 293 292 292 292 292 291 289 287 285
277 281 285 286 285 285 286 287 290 291 298 297 293 292 297 300 302 304 307 308 308 308 308 308 308 307 306 305 304 302 300 298 296 295 293 291 292 293 293 291 289 287 285
Height
5891 5890 5890 5891 5891 5891 5891 5892 5892 5893 5893 5894 5895 5895 5896 5896 5896 5897 5897 5898 5898 5899 5899 5899 5899 5900 5901 5901 5901 5901 5901 5901 5902 5902 5902 5903 5903 5904 5905 5905 5905 5905 5905
5889 5889 5888 5889 5889 5889 5889 5889 5890 5890 5891 5891 5892 5892 5893 5894 5894 5894 5894 5895 5895 5896 5896 5897 5897 5898 5899 5899 5899 5899 5899 5899 5899 5899 5899 5900 5900 5901 5902 5902 5902 5903 5903
5888 5887 5887 5887 5887 5887 5887 5887 5887 5888 5888 5888 5889 5889 5890 5891 5891 5891 5892 5892 5893 5893 5894 5895 5895 5896 5897 5897 5897 5897 5897 5897 5897 5897 5897 5897 5897 5898 5898 5899 5899 5899 5899
5887 5886 5886 5886 5885 5885 5885 5885 5885 5886 5886 5886 5886 5887 5887 5888 5889 5889 5890 5890 5891 5891 5892 5892 5893 5893 5894 5895 5895 5894 5894 5894 5894 5894 5894 5894 5894 5894 5894 5895 5895 5895 5895
5887 5886 5886 5885 5884 5884 5884 5884 5884 5884 5884 5884 5884 5884 5885 5886 5886 5887 5887 5888 5889 5889 5889 5890 5890 5890 5891 5891 5892 5891 5890 5890 5890 5890 5890 5890 5890 5890 5890 5890 5890 5891 5891
5888 5887 5886 5884 5883 5883 5882 5882 5882 5882 5882 5882 5882 5882 5883 5884 5884 5884 5885 5886 5886 5886 5886 5886 5886 5887 5888 5888 5888 5888 5887 5887 5886 5886 5886 5886 5886 5886 5886 5886 5886 5886 5886
5888 5887 5886 5884 5883 5882 5881 5881 5881 5881 5881 5881 5880 5881 5881 5882 5882 5882 5883 5883 5884 5883 5883 5883 5883 5884 5885 5885 5885 5885 5884 5883 5883 5882 5882 5882 5882 5882 5882 5882 5881 5882 5882
5888 5887 5885 5884 5882 5881 5881 5880 5880 5880 5880 5879 5879 5879 5880 5880 5881 5881 5881 5881 5881 5881 5880 5880 5880 5880 5881 5882 5882 5881 5880 5880 5879 5878 5878 5878 5877 5878 5877 5877 5877 5877 5877
5888 5886 5885 5883 5882 5881 5880 5880 5880 5879 5879 5879 5879 5879 5879 5879 5879 5880 5880 5879 5879 5878 5878 5877 5877 5877 5877 5877 5877 5876 5875 5875 5875 5874 5874 5874 5873 5873 5873 5873 5873 5873 5873
5888 5886 5884 5883 5882 5881 5880 5879 5879 5879 5878 5878 5878 5878 5878 5878 5878 5878 5878 5877 5877 5876 5875 5875 5874 5873 5873 5873 5872 5871 5871 5870 5870 5870 5870 5869 5869 5869 5868 5868 5868 5868 5868
5888 5886 5884 5883 5882 5880 5879 5879 5878 5877 5877 5877 5877 5876 5876 5876 5876 5876 5875 5875 5874 5873 5872 5871 5871 5870 5870 5869 5868 5867 5867 5866 5866 5866 5866 5865 5865 5864 5864 5863 5863 5863 5863
5887 5886 5884 5883 5882 5881 5879 5878 5877 5876 5876 5875 5875 5875 5874 5874 5873 5873 5872 5872 5871 5870 5869 5868 5868 5867 5867 5866 5865 5865 5864 5863 5862 5862 5862 5862 5861 5860 5859 5859 5858 5858 5857
5887 5885 5884 5883 5882 5881 5880 5878 5877 5876 5875 5874 5873 5872 5872 5871 5871 5870 5869 5869 5868 5867 5866 5865 5865 5865 5864 5864 5863 5862 5861 5860 5860 5859 5858 5858 5857 5856 5855 5854 5853 5853 5852
5886 5885 5884 5883 5882 5881 5880 5878 5877 5875 5874 5873 5871 5870 5869 5869 5868 5867 5867 5866 5865 5864 5863 5863 5862 5861 5861 5860 5859 5858 5857 5856 5856 5855 5854 5854 5853 5852 5851 5850 5849 5848 5847
5884 5883 5882 5882 5881 5880 5879 5877 5875 5874 5872 5871 5869 5868 5867 5867 5866 5865 5864 5863 5862 5861 5860 5859 5858 5857 5856 5855 5854 5853 5852 5851 5850 5850 5849 5848 5847 5846 5845 5844 5843 5842 5841
5882 5882 5881 5879 5879 5878 5877 5875 5873 5871 5870 5868 5867 5866 5865 5864 5864 5863 5861 5860 5859 5858 5857 5855 5854 5852 5851 5850 5849 5847 5846 5846 5845 5844 5842 5841 5839 5838 5837 5836 5834 5833 5831
5880 5879 5878 5877 5875 5874 5873 5872 5870 5868 5866 5865 5864 5863 5862 5861 5860 5859 5857 5855 5854 5852 5851 5850 5849 5847 5846 5844 5843 5842 5841 5840 5838 5837 5835 5833 5831 5829 5827 5826 5824 5823 5821
5877 5876 5875 5874 5872 5870 5869 5867 5865 5863 5861 5860 5858 5857 5856 5856 5855 5853 5851 5849 5847 5846 5844 5843 5842 5840 5839 5838 5837 5835 5834 5832 5830 5828 5826 5823 5821 5819 5816 5814 5813 5811 5809
5874 5872 5871 5869 5867 5865 5864 5863 5861 5859 5856 5854 5852 5851 5850 5849 5847 5846 5844 5842 5840 5838 5837 5835 5834 5833 5831 5830 5829 5827 5825 5822 5820 5818 5815 5813 5810 5807 5805 5802 5800 5798 5797
5870 5869 5867 5865 5862 5860 5858 5857 5855 5852 5850 5847 5845 5843 5842 5841 5839 5837 5835 5833 5831 5830 5829 5828 5827 5826 5824 5822 5820 5817 5815 5812 5810 5807 5804 5802 5799 5796 5793 5791 5788 5786 5784
5866 5865 5863 5860 5857 5854 5852 5850 5847 5843 5841 5840 5837 5835 5833 5832 5830 5828 5826 5825 5823 5822 5822 5821 5820 5818 5817 5814 5811 5808 5805 5802 5799 5796 5793 5790 5787 5784 5781 5778 5775 5773 5770
5861 5860 5858 5855 5852 5849 5846 5843 5839 5836 5833 5832 5829 5827 5826 5824 5822 5821 5819 5818 5816 5815 5813 5812 5812 5810 5808 5805 5802 5799 5795 5793 5789 5786 5782 5778 5774 5771 5768 5765 5761 5758 5755
5855 5854 5852 5850 5847 5843 5840 5835 5831 5828 5825 5823 5822 5821 5819 5817 5815 5814 5813 5810 5809 5807 5806 5804 5803 5801 5798 5795 5792 5789 5785 5782 5778 5775 5771 5766 5762 5757 5754 5750 5746 5742 5738
5849 5848 5846 5843 5841 5837 5833 5829 5825 5819 5815 5814 5814 5813 5812 5810 5808 5807 5806 5804 5802 5800 5798 5795 5793 5790 5787 5785 5781 5778 5774 5769 5765 5762 5758 5752 5747 5742 5738 5734 5729 5725 5720
5842 5841 5839 5837 5834 5831 5826 5822 5817 5813 5809 5807 5806 5805 5805 5803 5802 5801 5799 5797 5795 5792 5789 5786 5783 5780 5777 5773 5769 5765 5761 5756 5751 5747 5744 5739 5733 5726 5721 5716 5711 5706 5701
5834 5833 5832 5829 5826 5822 5817 5812 5808 5805 5802 5800 5799 5798 5798 5797 5796 5794 5792 5790 5787 5783 5780 5776 5773 5769 5765 5761 5756 5751 5747 5742 5737 5732 5728 5725 5720 5713 5705 5698 5692 5687 5682